Snowfall_Accumulation
0.0 0.0 0.1 0.1 0.0 0.3 0.2 0.3 0.2 0.0 0.0 0.0 0.0 0.0 0.0 0.0 0.0 0.0 0.0 0.0 0.0 0.0 0.0 0.0 0.0 0.0 0.0 0.0 0.0 0.0 0.0 0.0 0.0 0.0 0.0 0.0 0.0 0.0 0.0 0.0 0.0 0.0 0.0 0.0
0.1 0.2 0.0 0.0 0.0 0.0 0.1 0.1 0.1 0.0 0.0 0.0 0.1 0.2 0.0 0.0 0.1 0.1 0.1 0.0 0.0 0.0 0.0 0.0 0.0 0.0 0.0 0.0 0.0 0.0 0.0 0.0 0.0 0.0 0.0 0.0 0.0 0.0 0.0 0.0 0.0 0.0 0.0 0.0
0.1 0.0 0.0 0.0 0.0 0.0 0.1 0.3 0.1 0.1 0.0 0.0 0.0 0.1 0.1 0.1 0.1 0.1 0.1 0.1 0.0 0.0 0.0 0.0 0.2 0.0 0.0 0.0 0.0 0.0 0.0 0.0 0.0 0.0 0.0 0.0 0.0 0.0 0.0 0.0 0.0 0.0 0.0 0.0
0.0 0.0 0.0 0.0 0.0 0.0 0.1 0.0 0.1 0.2 1.7 3.5 0.6 4.4 0.1 0.2 0.5 0.7 0.2 0.2 0.1 0.0 0.0 0.0 0.1 1.3 0.3 0.2 0.0 0.0 0.0 0.0 0.0 0.0 0.0 0.0 0.0 0.0 0.0 0.0 0.0 0.0 0.0 0.0
0.0 0.0 0.0 0.0 0.0 0.0 0.2 0.0 0.0 0.2 1.8 1.3 0.2 3.6 0.5 0.1 0.7 2.3 2.7 0.3 0.3 0.1 0.1 0.0 0.0 0.6 0.4 1.1 0.6 0.2 0.2 0.1 0.1 0.0 0.0 0.0 0.0 0.0 0.0 0.0 0.0 0.0 0.0 0.0
0.0 0.0 0.0 0.1 0.0 0.0 0.0 0.0 0.0 0.3 2.5 18.2 0.1 1.4 3.9 1.8 4.8 0.6 1.3 0.5 0.4 0.4 0.1 0.1 0.0 0.0 1.0 1.2 1.3 0.2 0.9 0.2 0.2 0.2 0.1 0.0 0.0 0.0 0.0 0.0 0.0 0.0 0.0 0.0
0.0 0.1 0.0 0.0 0.0 0.0 0.5 2.2 20.1 30.4 33.7 9.3 1.0 1.4 7.6 3.7 2.0 1.3 3.0 1.3 0.6 0.7 0.3 0.2 0.1 0.1 0.7 1.4 1.7 2.5 0.9 1.8 1.9 1.2 0.1 0.1 0.0 0.0 0.0 0.0 0.0 0.0 0.0 0.0
4.0 7.3 4.4 2.2 1.3 1.8 1.3 9.7 8.2 9.4 11.7 2.4 2.3 17.6 6.3 3.9 1.7 0.8 1.3 3.4 0.4 1.5 0.5 0.5 0.2 0.1 0.7 1.8 1.9 2.9 4.2 4.3 1.8 3.2 1.0 0.2 0.1 0.0 0.0 0.0 0.0 0.0 0.0 0.0
3.6 3.5 0.2 0.4 0.7 0.5 4.1 17.0 6.6 6.6 3.7 3.3 11.7 13.2 2.7 1.5 1.6 1.2 1.5 0.5 2.0 1.3 1.2 0.8 0.6 0.6 0.8 1.3 2.4 3.0 5.5 6.3 6.3 2.9 3.0 0.9 0.1 0.1 0.0 0.0 0.0 0.0 0.0 0.0
2.6 5.3 3.2 0.2 0.8 2.3 3.3 5.2 15.8 17.6 15.8 18.6 17.4 7.5 6.0 4.8 2.9 2.1 2.2 2.7 2.8 1.0 2.1 1.2 0.6 0.8 0.9 2.3 1.9 2.0 3.7 7.2 8.6 7.3 4.5 2.4 1.0 0.1 0.0 0.0 0.0 0.0 0.0 0.0
0.3 6.3 3.9 0.2 6.0 9.7 5.3 12.3 12.0 13.3 11.8 11.7 12.4 19.1 10.0 6.9 3.8 3.6 3.9 3.3 3.6 4.2 2.1 3.5 1.6 1.3 1.4 1.1 2.9 3.3 2.5 5.9 7.3 8.5 7.0 4.7 2.2 0.6 0.1 0.1 0.0 0.0 0.0 0.0
0.1 3.8 6.5 7.0 5.1 3.7 7.1 11.8 10.0 19.6 18.4 13.9 10.9 12.9 8.1 4.3 4.6 2.8 3.6 3.6 3.7 2.5 3.8 3.3 2.9 2.2 1.4 1.1 1.0 2.5 2.3 4.1 7.4 7.6 8.8 8.4 5.0 1.9 0.6 0.2 0.1 0.1 0.1 0.1
0.6 3.4 5.7 7.1 5.3 0.7 5.7 7.9 10.0 11.4 14.7 22.1 17.6 17.4 7.1 4.4 3.8 4.5 4.2 4.1 3.6 2.9 2.3 2.3 2.5 2.2 2.2 1.8 1.6 1.4 2.1 2.3 4.4 7.3 7.7 8.9 8.8 5.7 2.9 1.4 0.5 0.3 0.3 0.2
nan 1.9 2.5 6.7 7.4 3.2 6.2 4.3 5.8 12.3 14.8 17.4 17.3 11.6 5.8 3.9 3.7 1.7 2.8 2.5 3.3 3.3 3.1 2.7 2.4 4.5 2.3 2.9 2.7 2.1 1.4 2.2 2.4 4.2 9.2 10.9 11.4 8.9 7.1 3.9 1.8 1.5 0.6 0.7
0.8 5.9 0.5 1.7 0.9 1.3 2.7 2.5 3.8 10.5 11.7 11.9 11.9 7.4 7.2 5.1 4.2 3.2 2.3 1.2 0.9 1.5 1.2 1.8 2.6 2.6 4.8 2.5 2.9 2.7 2.3 2.2 3.0 3.0 4.5 7.1 12.1 9.5 7.8 5.9 3.7 2.3 0.9 1.0
0.4 4.3 0.8 1.3 0.3 0.1 0.6 0.4 0.3 1.3 6.9 7.7 5.0 5.8 4.6 2.1 2.6 3.7 2.4 1.1 1.0 1.0 0.6 0.5 0.7 0.8 1.6 3.7 2.5 2.9 3.7 3.8 3.3 4.1 3.6 4.1 5.0 10.5 9.6 8.2 6.6 3.2 1.6 2.5
2.2 3.0 1.9 2.7 0.0 0.3 1.7 2.2 1.1 4.1 3.7 4.6 5.6 7.6 1.5 2.9 2.8 2.1 2.8 3.8 2.1 0.9 0.8 0.5 0.3 0.4 0.3 0.5 1.3 2.2 2.6 3.5 3.8 3.8 4.9 2.7 3.9 3.3 8.6 10.6 9.1 7.0 3.5 3.4
0.6 2.1 2.8 4.2 0.6 7.3 2.6 0.1 0.5 0.9 2.0 1.6 1.8 2.2 1.4 1.5 3.0 1.8 2.0 1.9 3.4 1.9 0.5 0.3 0.2 0.1 0.0 0.0 0.0 0.6 0.9 1.5 3.7 3.8 3.7 5.6 4.0 3.9 3.4 6.4 9.7 9.9 6.6 4.7
0.2 3.4 11.5 10.7 2.5 1.1 0.3 0.5 1.1 1.8 1.2 0.4 0.8 0.3 0.4 0.6 0.6 1.1 0.1 0.2 0.3 0.3 0.6 0.5 0.1 0.0 0.0 0.0 0.0 0.0 0.1 0.4 0.8 2.4 3.1 3.5 5.3 5.5 4.1 3.8 5.5 8.4 8.9 5.8
0.0 1.6 3.3 4.1 7.9 3.2 3.0 0.0 0.0 0.1 1.7 0.1 0.2 0.5 0.8 0.3 3.0 0.6 0.0 0.0 0.0 0.0 0.0 0.0 0.0 0.0 0.0 0.0 0.0 0.0 0.0 0.0 0.1 0.4 1.0 1.5 3.3 5.1 6.0 4.9 4.7 5.3 7.2 8.9
0.4 2.8 6.6 2.4 6.9 2.4 0.2 0.0 0.0 2.2 2.8 0.2 0.1 0.4 1.5 3.5 0.3 0.0 0.0 0.0 0.0 0.0 0.0 0.0 0.0 0.0 0.0 0.0 0.0 0.0 0.0 0.0 0.0 0.0 0.1 0.2 0.7 2.7 4.8 5.2 5.2 4.5 4.1 3.9
7.4 10.6 4.3 3.7 4.1 8.2 0.1 0.7 6.9 3.0 0.6 0.1 0.4 0.5 1.1 0.1 0.1 0.0 0.0 0.0 0.0 0.1 0.0 0.0 0.0 0.0 0.0 0.0 0.0 0.0 0.0 0.0 0.0 0.0 0.0 0.0 0.1 0.3 1.2 3.6 4.5 5.2 4.9 4.6
10.8 7.7 10.8 5.6 1.8 0.9 0.6 5.5 3.4 4.5 6.5 3.3 3.3 0.4 1.2 1.1 0.3 0.1 0.2 0.3 0.2 0.2 0.1 0.0 0.0 0.0 0.0 0.0 0.0 0.1 0.0 0.0 0.0 0.0 0.0 0.0 0.0 0.0 0.2 1.4 2.8 3.8 4.9 5.3
1.0 1.6 6.1 6.7 2.8 3.2 3.6 4.9 2.6 4.3 6.9 5.4 3.6 3.3 1.8 3.1 1.1 0.8 0.5 1.0 0.9 0.5 0.6 0.2 0.3 0.2 0.1 0.0 0.1 0.1 0.0 0.0 0.0 0.0 0.0 0.0 0.0 0.0 0.0 0.3 1.1 2.0 3.4 4.2
3.5 3.1 3.8 3.9 3.6 2.8 1.2 3.5 5.9 6.4 3.9 5.8 4.9 6.3 7.3 5.1 3.8 3.9 2.9 3.0 2.8 2.4 1.4 1.2 1.2 0.8 0.3 0.2 0.2 0.1 0.1 0.1 0.2 0.1 0.0 0.0 0.0 0.0 0.0 0.1 0.6 1.4 1.8 3.8
12.0 16.7 17.4 11.6 9.2 14.2 9.6 8.8 7.5 8.1 11.0 12.3 10.9 6.2 6.2 8.2 8.4 5.6 4.5 5.1 5.7 4.4 3.5 2.3 1.8 1.6 0.9 0.8 0.3 0.2 0.2 0.3 0.3 0.3 0.1 0.1 0.1 0.1 0.0 0.1 0.1 nan nan nan
Water_Equivalent
0.00 0.00 0.02 0.02 0.00 0.06 0.04 0.07 0.03 0.00 0.00 0.00 0.00 0.00 0.00 0.00 0.00 0.00 0.00 0.00 0.00 0.00 0.00 0.00 0.00 0.00 0.00 0.00 0.00 0.00 0.00 0.00 0.00 0.00 0.00 0.00 0.00 0.00 0.00 0.00 0.00 0.00 0.00 0.00
0.02 0.04 0.00 0.00 0.00 0.01 0.02 0.02 0.02 0.00 0.00 0.01 0.01 0.04 0.01 0.00 0.03 0.02 0.01 0.00 0.00 0.00 0.00 0.00 0.00 0.00 0.00 0.00 0.00 0.00 0.00 0.00 0.00 0.00 0.00 0.00 0.00 0.00 0.00 0.00 0.00 0.00 0.00 0.00
0.02 0.00 0.00 0.00 0.00 0.00 0.02 0.07 0.01 0.02 0.00 0.00 0.00 0.02 0.01 0.02 0.03 0.02 0.01 0.02 0.00 0.00 0.00 0.00 0.06 0.01 0.00 0.00 0.01 0.00 0.00 0.00 0.00 0.00 0.00 0.00 0.00 0.00 0.00 0.00 0.00 0.00 0.00 0.00
0.00 0.00 0.00 0.00 0.00 0.00 0.01 0.00 0.01 0.04 0.33 0.48 0.11 0.46 0.02 0.03 0.08 0.11 0.03 0.03 0.02 0.01 0.00 0.00 0.02 0.34 0.06 0.05 0.00 0.01 0.01 0.01 0.00 0.00 0.00 0.00 0.00 0.00 0.00 0.00 0.00 0.00 0.00 0.00
0.01 0.00 0.00 0.01 0.01 0.01 0.05 0.00 0.01 0.05 0.35 0.19 0.04 0.45 0.06 0.02 0.09 0.21 0.28 0.04 0.05 0.02 0.02 0.00 0.01 0.15 0.10 0.28 0.12 0.04 0.05 0.02 0.02 0.01 0.00 0.00 0.00 0.00 0.00 0.00 0.00 0.00 0.00 0.00
0.00 0.00 0.01 0.04 0.00 0.00 0.00 0.00 0.00 0.08 0.44 2.22 0.02 0.20 0.41 0.17 0.43 0.09 0.17 0.08 0.06 0.07 0.02 0.01 0.00 0.01 0.22 0.27 0.25 0.05 0.19 0.04 0.05 0.04 0.02 0.00 0.00 0.00 0.00 0.00 0.00 0.00 0.00 0.00
0.00 0.02 0.01 0.00 0.01 0.00 0.09 0.33 3.04 4.27 4.14 1.07 0.22 0.20 0.66 0.40 0.26 0.17 0.30 0.18 0.10 0.12 0.05 0.03 0.01 0.03 0.14 0.25 0.30 0.48 0.18 0.34 0.35 0.22 0.02 0.03 0.00 0.00 0.00 0.00 0.00 0.00 0.00 0.00
0.62 1.21 0.72 0.43 0.22 0.27 0.19 1.05 1.03 0.85 1.35 0.34 0.20 1.39 0.61 0.45 0.23 0.12 0.17 0.35 0.07 0.22 0.08 0.08 0.04 0.03 0.13 0.30 0.31 0.48 0.70 0.71 0.29 0.55 0.19 0.04 0.02 0.01 0.00 0.00 0.00 0.00 0.00 0.00
0.37 0.48 0.03 0.09 0.13 0.09 0.53 2.06 0.75 0.59 0.35 0.34 1.15 1.20 0.30 0.18 0.18 0.14 0.17 0.07 0.23 0.18 0.19 0.14 0.10 0.11 0.13 0.22 0.38 0.45 0.90 0.98 1.06 0.45 0.50 0.16 0.02 0.02 0.01 0.00 0.00 0.00 0.00 0.00
0.37 0.45 0.38 0.03 0.13 0.32 0.39 0.65 1.66 2.15 1.39 1.50 1.34 0.49 0.54 0.37 0.25 0.22 0.21 0.28 0.32 0.14 0.30 0.20 0.10 0.13 0.16 0.38 0.31 0.33 0.63 1.07 1.22 1.30 0.67 0.41 0.18 0.02 0.01 0.00 0.00 0.00 0.00 0.00
0.05 0.61 0.37 0.03 0.57 0.81 0.66 1.22 1.18 1.09 0.95 0.89 0.89 1.41 1.04 0.63 0.36 0.34 0.38 0.35 0.39 0.45 0.28 0.46 0.25 0.23 0.23 0.17 0.44 0.50 0.41 0.92 1.02 1.18 1.16 0.72 0.36 0.10 0.02 0.02 0.01 0.00 0.01 0.01
0.01 0.39 0.67 0.60 0.56 0.41 0.74 1.01 0.89 1.63 1.47 1.01 0.80 1.00 0.80 0.42 0.46 0.29 0.38 0.39 0.41 0.32 0.44 0.41 0.42 0.36 0.26 0.19 0.15 0.37 0.38 0.65 1.16 1.10 1.31 1.30 0.78 0.32 0.10 0.04 0.03 0.02 0.03 0.02
0.06 0.35 0.49 0.57 0.53 0.09 0.47 0.71 0.83 0.92 1.23 1.51 1.51 1.36 0.62 0.40 0.33 0.42 0.37 0.40 0.38 0.36 0.29 0.28 0.34 0.30 0.39 0.36 0.30 0.22 0.33 0.37 0.76 1.25 1.10 1.29 1.32 0.89 0.45 0.23 0.08 0.06 0.06 0.04
nan 0.18 0.19 0.55 0.51 0.31 0.47 0.34 0.44 1.01 1.16 1.21 1.33 0.74 0.40 0.34 0.31 0.17 0.25 0.25 0.36 0.36 0.32 0.31 0.27 0.55 0.32 0.53 0.50 0.40 0.22 0.37 0.41 0.64 1.39 1.62 1.67 1.33 1.11 0.59 0.28 0.26 0.12 0.13
0.10 0.48 0.05 0.13 0.09 0.13 0.22 0.18 0.26 0.84 0.80 0.85 0.72 0.43 0.47 0.40 0.32 0.26 0.22 0.12 0.11 0.17 0.14 0.19 0.25 0.27 0.59 0.33 0.54 0.50 0.48 0.38 0.57 0.57 0.64 0.95 1.82 1.41 1.12 0.88 0.55 0.42 0.17 0.22
0.06 0.39 0.07 0.10 0.03 0.01 0.04 0.04 0.02 0.09 0.43 0.47 0.29 0.33 0.34 0.18 0.23 0.28 0.19 0.10 0.10 0.12 0.08 0.07 0.09 0.10 0.17 0.45 0.30 0.53 0.67 0.66 0.54 0.72 0.63 0.71 0.68 1.65 1.44 1.15 1.01 0.56 0.28 0.54
0.21 0.26 0.15 0.18 0.00 0.02 0.15 0.14 0.08 0.27 0.24 0.29 0.33 0.47 0.15 0.20 0.20 0.17 0.23 0.34 0.20 0.11 0.09 0.06 0.04 0.05 0.04 0.07 0.18 0.25 0.40 0.62 0.59 0.54 0.82 0.44 0.71 0.48 1.24 1.65 1.31 1.13 0.56 0.54
0.05 0.18 0.24 0.36 0.04 0.46 0.19 0.01 0.06 0.07 0.16 0.13 0.13 0.16 0.13 0.13 0.25 0.15 0.22 0.19 0.30 0.18 0.05 0.04 0.02 0.01 0.00 0.00 0.01 0.09 0.12 0.22 0.54 0.52 0.51 0.83 0.64 0.68 0.63 0.95 1.43 1.64 1.11 0.72
0.03 0.33 1.01 0.84 0.17 0.07 0.02 0.04 0.08 0.12 0.08 0.04 0.07 0.04 0.05 0.07 0.07 0.11 0.01 0.03 0.04 0.04 0.07 0.06 0.02 0.00 0.00 0.00 0.00 0.00 0.02 0.06 0.10 0.29 0.38 0.45 0.71 0.85 0.65 0.71 0.85 1.29 1.63 0.94
0.00 0.19 0.33 0.42 0.55 0.24 0.20 0.00 0.00 0.01 0.12 0.01 0.02 0.06 0.08 0.03 0.20 0.05 0.01 0.00 0.00 0.00 0.00 0.01 0.00 0.00 0.00 0.00 0.00 0.00 0.00 0.01 0.02 0.05 0.12 0.20 0.40 0.65 0.84 0.73 0.81 0.99 1.25 1.63
0.04 0.26 0.63 0.22 0.53 0.19 0.02 0.00 0.00 0.16 0.23 0.02 0.01 0.04 0.15 0.25 0.03 0.00 0.00 0.00 0.00 0.00 0.00 0.00 0.00 0.00 0.00 0.00 0.00 0.00 0.00 0.00 0.00 0.00 0.01 0.03 0.09 0.34 0.58 0.69 0.76 0.76 0.85 0.86
0.53 0.86 0.34 0.29 0.32 0.85 0.01 0.07 0.45 0.25 0.08 0.01 0.05 0.05 0.09 0.01 0.01 0.00 0.00 0.00 0.00 0.01 0.00 0.00 0.00 0.00 0.00 0.00 0.00 0.00 0.00 0.00 0.00 0.00 0.00 0.01 0.02 0.04 0.14 0.43 0.56 0.71 0.71 0.77
0.93 0.62 0.79 0.49 0.13 0.08 0.06 0.50 0.34 0.43 0.58 0.29 0.29 0.05 0.12 0.11 0.03 0.01 0.02 0.04 0.03 0.02 0.01 0.00 0.01 0.00 0.00 0.00 0.00 0.02 0.00 0.00 0.00 0.00 0.00 0.00 0.01 0.01 0.02 0.15 0.32 0.44 0.63 0.68
0.12 0.19 0.60 0.59 0.37 0.35 0.37 0.56 0.27 0.45 0.68 0.55 0.36 0.32 0.18 0.27 0.10 0.08 0.06 0.16 0.11 0.05 0.06 0.03 0.04 0.02 0.01 0.00 0.02 0.01 0.00 0.00 0.00 0.00 0.00 0.00 0.00 0.00 0.01 0.04 0.15 0.23 0.39 0.49
0.33 0.28 0.35 0.39 0.46 0.37 0.16 0.39 0.63 0.70 0.45 0.68 0.64 0.69 0.79 0.53 0.45 0.44 0.34 0.39 0.35 0.31 0.19 0.15 0.14 0.09 0.03 0.03 0.02 0.01 0.01 0.02 0.02 0.01 0.00 0.00 0.00 0.00 0.00 0.02 0.07 0.17 0.22 0.48
1.17 1.60 1.53 0.97 0.87 1.43 1.22 0.98 0.84 0.85 1.29 1.61 1.18 0.67 0.70 0.90 0.94 0.62 0.51 0.61 0.69 0.51 0.41 0.28 0.22 0.18 0.12 0.11 0.05 0.03 0.03 0.04 0.03 0.02 0.01 0.01 0.01 0.01 0.01 0.01 0.01 nan nan nan
SL_Ratio
nan nan 4.2 5.1 2.5 4.5 4.5 5.1 4.9 nan nan nan nan nan nan nan nan nan nan nan nan nan nan nan nan nan nan nan nan nan nan nan nan nan nan nan nan nan nan nan nan nan nan nan
4.1 4.2 nan nan nan 3.5 3.8 4.2 4.7 nan nan 4.4 5.5 6.1 5.0 nan 5.1 5.3 5.3 nan nan nan nan nan 5.0 nan nan nan nan nan nan nan nan nan nan nan nan nan nan nan nan nan nan nan
4.4 nan nan nan nan 4.0 3.8 4.9 5.0 4.7 nan nan 3.3 6.5 5.3 5.2 4.5 5.0 4.7 4.8 5.0 5.0 nan nan 3.9 3.9 3.6 4.2 4.1 nan 3.0 nan nan nan nan nan nan nan nan nan nan nan nan nan
3.3 nan nan 3.3 5.0 3.3 4.8 nan 4.3 5.3 5.2 7.3 5.0 9.6 7.2 6.3 6.5 6.8 6.3 5.8 5.6 5.4 nan nan 4.0 4.0 4.3 4.5 5.0 3.9 3.6 3.1 nan nan nan nan nan nan nan nan nan nan nan nan
4.4 nan nan 4.6 4.5 3.5 4.2 nan 4.0 4.2 5.2 6.5 6.3 7.9 7.7 6.0 8.1 11.1 9.7 6.2 5.8 5.3 5.2 5.0 4.4 4.1 4.3 4.0 5.1 4.4 3.7 4.2 3.7 4.1 nan nan nan nan nan nan nan nan nan nan
0.0 nan 3.8 3.9 nan 4.3 5.0 5.0 3.8 4.2 5.6 8.2 6.6 7.2 9.6 10.1 11.3 7.5 7.4 6.6 6.1 5.8 5.1 4.5 nan 3.8 4.5 4.6 5.3 4.7 4.7 4.6 4.6 4.2 4.4 2.5 nan nan nan nan nan nan nan nan
5.0 4.4 3.8 3.8 3.9 nan 5.3 6.6 6.6 7.1 8.1 8.6 4.8 6.9 11.6 9.3 7.7 7.7 9.8 7.5 6.5 6.2 5.7 5.2 4.8 4.9 4.9 5.4 5.8 5.2 5.2 5.3 5.4 5.3 4.5 4.8 nan nan nan nan nan nan nan nan
6.4 6.1 6.1 5.1 5.6 6.5 7.0 9.2 8.0 11.1 8.7 7.2 11.6 12.7 10.5 8.6 7.6 7.0 7.3 9.7 6.4 7.0 5.9 6.0 5.5 5.2 5.4 5.8 6.1 6.0 5.9 6.1 6.0 5.9 5.3 4.9 4.6 5.4 nan nan nan nan nan nan
9.6 7.2 5.9 5.1 5.2 6.0 7.9 8.2 8.9 11.3 10.6 9.7 10.2 11.0 8.9 8.5 8.9 8.2 8.4 7.0 8.8 7.0 6.4 6.1 6.0 5.6 5.8 6.2 6.3 6.7 6.1 6.4 6.0 6.4 6.0 5.4 5.0 5.2 5.5 nan nan nan nan nan
7.0 11.7 8.4 5.4 6.1 7.0 8.7 8.0 9.5 8.2 11.4 12.4 12.9 15.3 11.0 12.8 11.7 9.6 10.1 9.8 8.9 7.1 7.1 6.3 5.6 5.7 5.8 6.1 6.1 5.9 5.9 6.7 7.0 5.6 6.7 5.8 5.5 5.2 5.0 nan nan nan nan nan
5.8 10.3 10.4 5.3 10.6 12.0 8.1 10.1 10.2 12.2 12.4 13.1 13.8 13.5 9.6 11.0 10.4 10.7 10.1 9.4 9.3 9.3 7.6 7.5 6.4 5.5 6.0 6.3 6.7 6.6 6.0 6.4 7.1 7.2 6.0 6.5 6.2 5.5 5.1 5.0 4.1 2.5 4.0 3.7
6.1 9.6 9.8 11.7 9.2 8.9 9.5 11.7 11.3 12.0 12.5 13.8 13.6 12.9 10.1 10.2 9.9 9.6 9.6 9.2 8.9 7.9 8.5 8.0 7.0 6.1 5.5 6.0 6.4 6.8 6.0 6.3 6.4 6.9 6.7 6.5 6.4 6.1 5.8 5.4 4.9 4.6 4.3 3.4
8.6 9.6 11.7 12.3 10.0 8.5 12.1 11.1 12.0 12.4 11.9 14.6 11.7 12.9 11.3 11.0 11.3 10.8 11.3 10.2 9.5 8.1 8.0 8.1 7.4 7.3 5.7 5.1 5.4 6.6 6.5 6.1 5.7 5.9 7.1 6.9 6.7 6.4 6.5 6.1 5.5 4.9 4.8 4.1
nan 10.3 13.0 12.3 14.5 10.3 13.3 12.7 13.2 12.1 12.8 14.4 13.0 15.6 14.4 11.5 11.7 9.7 11.2 9.7 9.2 9.1 9.6 8.8 8.9 8.2 7.3 5.4 5.5 5.2 6.1 5.9 5.8 6.5 6.6 6.7 6.8 6.7 6.3 6.6 6.5 5.8 5.2 4.9
8.3 12.2 9.9 12.8 9.8 9.9 12.2 14.0 14.7 12.6 14.7 14.0 16.4 17.0 15.5 12.8 13.2 12.2 10.6 9.4 8.6 8.6 8.5 9.5 10.3 9.6 8.2 7.5 5.3 5.3 4.8 5.8 5.2 5.4 7.0 7.5 6.7 6.8 7.0 6.7 6.8 5.6 5.3 4.8
7.7 11.0 10.9 13.4 10.8 10.5 13.2 10.9 10.9 15.5 16.1 16.4 17.1 17.9 13.3 11.6 11.3 13.0 12.6 10.4 10.5 8.4 7.8 7.5 7.8 7.9 9.2 8.4 8.4 5.5 5.6 5.8 6.1 5.7 5.7 5.8 7.3 6.3 6.7 7.2 6.6 5.8 5.7 4.7
10.3 11.3 12.3 15.6 15.0 13.6 11.3 15.9 13.5 15.4 15.3 15.8 16.9 16.4 10.1 14.1 13.8 12.3 12.3 11.2 10.5 8.7 8.4 8.4 7.9 7.9 7.3 7.1 7.0 8.7 6.5 5.7 6.5 7.0 6.0 6.1 5.5 6.9 7.0 6.4 6.9 6.2 6.3 6.2
10.2 11.8 11.5 11.5 15.0 15.9 13.8 7.9 9.3 13.2 12.5 13.1 14.1 13.7 11.1 11.4 12.2 12.0 9.3 10.4 11.7 10.1 8.7 7.9 7.6 7.5 nan nan 5.5 6.9 7.3 7.1 6.9 7.4 7.2 6.8 6.2 5.7 5.4 6.7 6.8 6.1 5.9 6.5
6.7 10.3 11.4 12.7 15.1 16.3 13.7 10.8 13.3 14.7 14.3 9.0 11.2 8.8 8.7 8.7 9.1 10.2 6.2 6.5 7.2 8.2 8.6 8.2 6.9 5.7 nan nan nan 5.0 6.0 7.6 8.1 8.4 8.2 7.7 7.5 6.5 6.3 5.3 6.5 6.5 5.5 6.2
8.6 8.6 10.1 9.8 14.4 13.0 14.8 5.0 nan 8.0 15.0 9.2 8.0 8.4 9.7 9.0 15.3 11.5 6.5 5.0 nan nan nan 6.3 nan 5.0 nan nan nan nan nan 6.0 7.8 8.2 7.9 7.8 8.2 7.8 7.2 6.8 5.8 5.4 5.7 5.5
11.0 10.8 10.5 10.8 13.1 13.0 10.6 nan nan 14.3 12.4 8.2 7.8 8.1 9.6 13.8 11.2 7.5 nan nan nan nan nan nan nan nan nan nan nan nan nan nan nan 10.0 5.3 5.9 7.9 8.2 8.3 7.5 6.8 5.9 4.8 4.6
13.9 12.3 12.6 12.8 12.9 9.7 6.9 9.3 15.4 12.0 8.3 7.6 8.5 9.1 11.5 9.5 8.9 10.0 nan 6.7 6.7 9.6 6.7 nan 6.7 nan nan nan nan nan nan nan nan nan 5.0 5.8 5.9 8.1 8.4 8.4 8.0 7.3 6.8 5.9
11.6 12.5 13.6 11.3 14.3 11.4 10.0 10.9 9.8 10.6 11.2 11.5 11.2 8.8 9.7 10.5 9.2 8.4 8.4 7.9 6.9 7.0 8.6 8.3 7.8 7.9 nan nan 5.0 8.5 nan nan nan nan nan 5.0 5.6 6.1 7.1 8.9 8.8 8.6 7.8 7.8
7.9 8.4 10.2 11.2 7.4 9.1 9.6 8.8 9.6 9.5 10.1 9.9 10.0 10.4 10.1 11.6 10.6 10.0 8.9 6.6 8.3 8.9 9.5 8.4 9.2 9.1 7.8 5.0 8.6 7.9 5.0 7.5 8.6 8.3 7.5 nan 5.0 6.4 6.4 7.2 7.8 8.5 8.7 8.5
10.7 11.1 10.8 10.0 7.8 7.7 7.3 9.1 9.5 9.2 8.7 8.5 7.8 9.1 9.3 9.6 8.3 8.9 8.7 7.8 7.8 7.9 7.6 7.9 8.8 8.7 7.7 8.4 9.2 8.2 7.9 8.5 10.2 10.0 8.0 10.0 8.3 7.5 8.3 7.9 8.6 8.3 8.1 7.9
10.2 10.4 11.4 12.0 10.5 10.0 7.8 9.0 8.9 9.4 8.5 7.6 9.2 9.3 8.8 9.1 9.0 9.0 8.8 8.3 8.2 8.5 8.7 8.2 8.4 8.7 7.6 7.2 6.5 6.0 7.1 8.2 10.6 11.4 9.5 9.4 9.6 8.9 8.1 9.1 8.7 nan nan nan